{"data":{"norad_id":66599,"epoch":"2026-09-20T01:34:36.405696Z","epoch_age_seconds":123767,"freshness":"FRESH","line1":"1 66599U 25270M   26263.06569914  .00020736  00000+0  76036-3 0  9992","line2":"2 66599  42.9958  38.4022 0002509 276.1209  83.9357 15.27603915 47438","mean_motion":15.27603915,"eccentricity":0.0002509,"inclination_deg":42.9958,"raan_deg":38.4022,"arg_perigee_deg":276.1209,"mean_anomaly_deg":83.9357,"bstar":0.00076036,"rev_number":4743,"period_min":94.265272945441,"perigee_km":481.25603323575,"apogee_km":484.69894048526,"semimajor_km":6861.1144868605,"source":"CELESTRAK","updated_at":"2026-09-21T09:00:35.978030Z"}}